HTV-X1

Last updated on Sun Apr 12 2026 00:02:13 GMT+0000 (Coordinated Universal Time)

1 66174U 25241A 26101.45123988 .00004964 00000+0 16673-3 0 9996 2 66174 51.6360 275.1060 0007389 300.5813 59.4439 15.32616737 25962
UTC large
Height (km)
Speed (km/s)
/
Latitude / Longitude
Inclination (degrees)
Orbital Period (minutes)
Azimuth
Elevation
Range (km)
Doppler Factor

Next 0 passes for location: London (51.5072 / 0.1276)

No passes found over London.
HTV-X1